Regional Weather Roundup
Issued by NWS

Home | Current Version | Previous Version | Text Only | Print | Product List | Glossary On
Versions: 1 2 3 4 5 6 7 8 9 10 11 12 13 14 15 16 17 18 19 20 21 22 23 24 25 26 27 28 29 30 31 32 33 34 35 36 37 38 39 40 41 42 43 44 45 46 47 48 49 50
000
ASUS43 KOAX 230210
RWRNE

WEATHER ROUNDUP FOR NEBRASKA
NATIONAL WEATHER SERVICE OMAHA NE
800 PM CST MON JAN 22 2018

NOTES: SATELLITE DATA IS BEING USED TO AUGMENT CLOUD COVER ABOVE
       12000 FEET.
       "FAIR" INDICATES FEW OR NO CLOUDS BELOW 12,000 FEET WITH NO
       SIGNIFICANT WEATHER AND/OR OBSTRUCTIONS TO VISIBILITY.


NEZ001>004-019>022-054>056-230300-
NEBRASKA PANHANDLE

CITY           SKY/WX    TMP DP  RH WIND       PRES   REMARKS
SCOTTSBLUFF    CLEAR     22  15  75 NW13      30.07R WCI  10
ALLIANCE       CLEAR     14   8  77 W9        30.04R WCI   2
CHADRON        PTCLDY    20  13  74 W5        30.06R WCI  13
GORDON         FAIR      17  11  77 W7        30.01S WCI   8
KIMBALL        CLEAR     25  13  59 NW17      30.05R WCI  12
SIDNEY         CLEAR     24  14  65 W17       30.05R WCI  11
$$

NEZ057>060-069>072-079>082-230300-
SOUTHWEST NEBRASKA

CITY           SKY/WX    TMP DP  RH WIND       PRES   REMARKS
NORTH PLATTE   CLEAR     19  11  70 W10       30.02R WCI   7
IMPERIAL       CLEAR     25  16  68 NW14      30.05R WCI  13
LEXINGTON      CLEAR     24  18  78 NW10      29.99R WCI  13
MCCOOK         CLEAR     26  17  68 NW16      30.02R WCI  14
OGALLALA       CLEAR     27  17  63 W15       30.05R WCI  16
$$

NEZ005>010-023>029-035>040-094-230300-
NORTH CENTRAL NEBRASKA

CITY           SKY/WX    TMP DP  RH WIND       PRES   REMARKS
VALENTINE      CLEAR     20  16  84 W8        30.00R WCI  10
AINSWORTH      CLEAR     22  19  91 NW8       29.98R WCI  12
BROKEN BOW     CLEAR     26  18  71 NW18G26   29.96R WCI  13
O`NEILL        CLOUDY    24  24  98 N17G24    29.96R WCI  11
ORD            CLEAR     26  22  84 NW20      29.93R WCI  12
THEDFORD       CLEAR     23  17  78 NW9       30.00R WCI  13
$$

NEZ041-046>049-061>064-073>077-083>087-230300-
SOUTH CENTRAL NEBRASKA

CITY           SKY/WX    TMP DP  RH WIND       PRES   REMARKS
GRAND ISLAND   CLOUDY    25  22  88 NW22      29.91R WCI  10
AURORA         CLOUDY    24  22  91 NW26G33   29.91R WCI   7
HASTINGS       CLEAR     27  20  75 NW17      29.92R WCI  14
HEBRON         CLOUDY    29  23  78 NW17      29.89R WCI  17
HOLDREGE       CLEAR     27  22  82 NW9       29.96R WCI  18
KEARNEY        CLEAR     27  21  78 NW20      29.94R WCI  13
YORK           LGT SNOW  25  25 100 N25G35    29.88R WCI   9
$$

NEZ011>018-030>034-042>045-230300-
NORTHEAST NEBRASKA

CITY           SKY/WX    TMP DP  RH WIND       PRES   REMARKS
NORFOLK        CLOUDY    24  21  88 NW28G35   29.88R BLWGSNOWWCI   7
ALBION         LGT SNOW  25  22  88 NW30      29.90R WCI   9
BLAIR          CLOUDY    29  27  91 NW25G33   29.76R WCI  15
COLUMBUS       LGT SNOW  25  21  86 NW29G38   29.87S FOG     WCI   8
FREMONT          N/A    N/A N/A N/A MISG        N/A
TEKAMAH        LGT SNOW  29  28  96 NW24G36   29.81R FOG     WCI  15
WAYNE            N/A     27  26  96 NW25G32   29.86R WCI  11
$$

NEZ050>053-065>068-078-088>093-230300-
SOUTHEAST NEBRASKA

CITY           SKY/WX    TMP DP  RH WIND       PRES   REMARKS
LINCOLN        CLOUDY    27  23  85 NW21G31   29.85R WCI  13
OMAHA EPPLEY   LGT SNOW  30  27  88 NW24G36   29.78R BLWGSNOWWCI  16
BEATRICE       CLOUDY    28  26  89 NW26G35   29.85R FOG     WCI  13
FALLS CITY     FLURRIES  30  27  88 NW23G33   29.73R WCI  17
NEBRASKA CITY  LGT SNOW  30  30 100 NW28G35   29.75R WCI  15
PLATTSMOUTH    LGT SNOW  30  28  94 NW24G37   29.75R WCI  16
$$

NEZ044-045-051>053-067-230300-
OMAHA AREA

CITY           SKY/WX    TMP DP  RH WIND       PRES   REMARKS
OMAHA EPPLEY   LGT SNOW  30  27  88 NW24G36   29.78R BLWGSNOWWCI  16
BLAIR          CLOUDY    29  27  91 NW25G33   29.76R WCI  15
FREMONT          N/A    N/A N/A N/A MISG        N/A
MILLARD        LGT SNOW  31  28  86 NW20G30   29.78R WCI  19
OFFUTT AFB     LGT SNOW  30  27  87 NW18G32   29.76R FOG     WCI  18
PLATTSMOUTH    LGT SNOW  30  28  94 NW24G37   29.75R WCI  16
WAHOO          CLOUDY    28  26  92 NW28G41   29.82R WCI  12
$$




USA.gov is the U.S. government's official web portal to all federal, state and local government web resources and services.